Terminal Aerodrome Forecast
Issued by NWS Tuscon, AZ

Home | Current Version | Previous Version | Text Only | Print | Product List | Glossary On
Versions: 1 2 3 4 5 6 7 8 9 10 11 12 13 14 15 16 17 18 19 20 21 22
000
FTUS45 KTWC 191700
TAFTUS
TAF
KTUS 191732Z 1918/2018 VRB03KT P6SM FEW050
     FM192200 35006KT P6SM SCT250
     FM200300 14005KT P6SM SCT250=

USA.gov is the U.S. government's official web portal to all federal, state and local government web resources and services.